• In Deutschland
  • Länderverzeichnis
  • Für 7 Tage
  • Wassertemperatur
  • Satellitenkarten
  • Wetterkarte
  • Widgets
  • user-avatar
    Anmelden

    Stündliche Wetter Glushakovo

    Heute, 20 September, Donnerstag

    Zeit Temperatur Niederschläge Wind Luftdruck Luftfeuchtigkeit
    00:00 +16°C° 0 mm 3 m/S 739 mmHg 96%
    01:00 +16°C° 0 mm 3 m/S 739 mmHg 96%
    02:00 +14°C° 0 mm 3 m/S 739 mmHg 97%
    03:00 +14°C° 0 mm 3 m/S 739 mmHg 97%
    04:00 +15°C° 0 mm 2 m/S 739 mmHg 98%
    05:00 +15°C° 0 mm 2 m/S 739 mmHg 98%
    06:00 +14°C° 0 mm 3 m/S 739 mmHg 95%
    07:00 +16°C° 0 mm 3 m/S 740 mmHg 92%
    08:00 +17°C° 0 mm 3 m/S 740 mmHg 89%
    09:00 +18°C° 0 mm 3 m/S 740 mmHg 80%
    10:00 +20°C° 0 mm 3 m/S 740 mmHg 71%
    11:00 +21°C° 0 mm 3 m/S 740 mmHg 61%
    12:00 +22°C° 0 mm 3 m/S 741 mmHg 59%
    13:00 +22°C° 0 mm 3 m/S 741 mmHg 57%
    14:00 +24°C° 0 mm 3 m/S 741 mmHg 54%
    15:00 +23°C° 0 mm 2 m/S 741 mmHg 60%
    16:00 +21°C° 0 mm 2 m/S 741 mmHg 66%
    17:00 +19°C° 0 mm 2 m/S 741 mmHg 72%
    18:00 +18°C° 0 mm 2 m/S 741 mmHg 77%
    19:00 +17°C° 0 mm 2 m/S 741 mmHg 82%
    20:00 +15°C° 0 mm 2 m/S 741 mmHg 87%
    21:00 +15°C° 0 mm 2 m/S 741 mmHg 89%
    22:00 +14°C° 0 mm 2 m/S 741 mmHg 90%
    23:00 +14°C° 0 mm 2 m/S 741 mmHg 92%

    Morgen, 21 September, Freitag

    Zeit Temperatur Niederschläge Wind Luftdruck Luftfeuchtigkeit
    00:00 +14°C° 0 mm 1 m/S 742 mmHg 93%
    01:00 +14°C° 0 mm 1 m/S 742 mmHg 93%
    02:00 +13°C° 0 mm 1 m/S 742 mmHg 94%
    03:00 +13°C° 0 mm 1 m/S 742 mmHg 94%
    04:00 +13°C° 0 mm 1 m/S 742 mmHg 94%
    05:00 +13°C° 0 mm 1 m/S 742 mmHg 94%
    06:00 +14°C° 0 mm 1 m/S 742 mmHg 90%
    07:00 +16°C° 0 mm 2 m/S 742 mmHg 85%
    08:00 +17°C° 0 mm 2 m/S 743 mmHg 80%
    09:00 +19°C° 0 mm 2 m/S 743 mmHg 74%
    10:00 +21°C° 0 mm 2 m/S 743 mmHg 69%
    11:00 +24°C° 0 mm 2 m/S 743 mmHg 63%
    12:00 +24°C° 0 mm 2 m/S 743 mmHg 62%
    13:00 +25°C° 0 mm 2 m/S 742 mmHg 60%
    14:00 +25°C° 0 mm 3 m/S 742 mmHg 59%
    15:00 +24°C° 0.1 mm 2 m/S 742 mmHg 65%
    16:00 +23°C° 0.1 mm 2 m/S 742 mmHg 71%
    17:00 +21°C° 0.1 mm 2 m/S 742 mmHg 77%
    18:00 +20°C° 0 mm 2 m/S 742 mmHg 81%
    19:00 +19°C° 0 mm 2 m/S 741 mmHg 86%
    20:00 +17°C° 0 mm 2 m/S 741 mmHg 91%
    21:00 +17°C° 0 mm 2 m/S 741 mmHg 92%
    22:00 +17°C° 0 mm 3 m/S 741 mmHg 93%
    23:00 +17°C° 0 mm 3 m/S 741 mmHg 94%

    übermorgen, 22 September, Samstag

    Zeit Temperatur Niederschläge Wind Luftdruck Luftfeuchtigkeit
    00:00 +17°C° 0 mm 3 m/S 740 mmHg 94%
    01:00 +17°C° 0 mm 3 m/S 740 mmHg 94%
    02:00 +16°C° 0 mm 3 m/S 740 mmHg 94%
    03:00 +16°C° 0 mm 3 m/S 739 mmHg 93%
    04:00 +15°C° 0 mm 4 m/S 739 mmHg 92%
    05:00 +15°C° 0 mm 4 m/S 738 mmHg 92%
    06:00 +17°C° 0 mm 4 m/S 738 mmHg 86%
    07:00 +17°C° 0 mm 5 m/S 737 mmHg 79%
    08:00 +19°C° 0 mm 5 m/S 737 mmHg 73%
    09:00 +20°C° 0 mm 6 m/S 737 mmHg 67%
    10:00 +21°C° 0 mm 6 m/S 736 mmHg 61%
    11:00 +23°C° 0 mm 6 m/S 736 mmHg 55%
    12:00 +22°C° 0.1 mm 6 m/S 736 mmHg 57%
    13:00 +22°C° 0.1 mm 6 m/S 736 mmHg 60%
    14:00 +22°C° 0.1 mm 6 m/S 736 mmHg 63%
    15:00 +19°C° 0.8 mm 5 m/S 736 mmHg 72%
    16:00 +17°C° 0.8 mm 4 m/S 736 mmHg 81%
    17:00 +13°C° 0.8 mm 4 m/S 736 mmHg 89%
    18:00 +13°C° 0.5 mm 3 m/S 736 mmHg 90%
    19:00 +12°C° 0.5 mm 3 m/S 736 mmHg 91%
    20:00 +12°C° 0.5 mm 2 m/S 736 mmHg 92%
    21:00 +12°C° 1.1 mm 2 m/S 736 mmHg 92%
    22:00 +10°C° 1.1 mm 2 m/S 736 mmHg 93%
    23:00 +10°C° 1.1 mm 2 m/S 737 mmHg 93%

    23 September, Sonntag

    Zeit Temperatur Niederschläge Wind Luftdruck Luftfeuchtigkeit
    00:00 +10°C° 0.7 mm 2 m/S 736 mmHg 93%
    01:00 +9°C° 0.7 mm 2 m/S 736 mmHg 93%
    02:00 +9°C° 0.7 mm 2 m/S 736 mmHg 94%
    03:00 +9°C° 0.1 mm 2 m/S 736 mmHg 94%
    04:00 +9°C° 0.1 mm 2 m/S 736 mmHg 95%
    05:00 +9°C° 0.1 mm 2 m/S 736 mmHg 96%
    06:00 +9°C° 0.1 mm 2 m/S 736 mmHg 95%
    07:00 +9°C° 0.1 mm 2 m/S 735 mmHg 94%
    08:00 +9°C° 0.1 mm 2 m/S 735 mmHg 93%
    09:00 +10°C° 0 mm 3 m/S 735 mmHg 85%
    10:00 +11°C° 0 mm 3 m/S 735 mmHg 77%
    11:00 +12°C° 0 mm 3 m/S 734 mmHg 69%
    12:00 +13°C° 0.2 mm 4 m/S 734 mmHg 67%
    13:00 +13°C° 0.2 mm 4 m/S 734 mmHg 66%
    14:00 +14°C° 0.2 mm 4 m/S 734 mmHg 64%
    15:00 +13°C° 0.3 mm 4 m/S 734 mmHg 70%
    16:00 +12°C° 0.3 mm 3 m/S 733 mmHg 76%
    17:00 +11°C° 0.3 mm 3 m/S 733 mmHg 81%
    18:00 +10°C° 0 mm 3 m/S 734 mmHg 84%
    19:00 +9°C° 0 mm 3 m/S 734 mmHg 87%
    20:00 +8°C° 0 mm 3 m/S 734 mmHg 90%
    21:00 +8°C° 0 mm 3 m/S 734 mmHg 90%
    22:00 +7°C° 0 mm 3 m/S 734 mmHg 91%
    23:00 +7°C° 0 mm 3 m/S 734 mmHg 92%

    24 September, Montag

    Zeit Temperatur Niederschläge Wind Luftdruck Luftfeuchtigkeit
    00:00 +7°C° 0 mm 3 m/S 734 mmHg 93%
    01:00 +7°C° 0 mm 3 m/S 734 mmHg 94%
    02:00 +5°C° 0 mm 3 m/S 734 mmHg 95%
    03:00 +5°C° 0 mm 3 m/S 734 mmHg 95%
    04:00 +5°C° 0 mm 3 m/S 734 mmHg 96%
    05:00 +6°C° 0 mm 2 m/S 734 mmHg 96%
    06:00 +6°C° 0 mm 2 m/S 734 mmHg 94%
    07:00 +7°C° 0 mm 2 m/S 734 mmHg 92%
    08:00 +8°C° 0 mm 2 m/S 734 mmHg 89%
    09:00 +9°C° 0 mm 3 m/S 734 mmHg 81%
    10:00 +11°C° 0 mm 3 m/S 734 mmHg 74%
    11:00 +12°C° 0 mm 4 m/S 734 mmHg 66%
    12:00 +12°C° 0 mm 4 m/S 733 mmHg 66%
    13:00 +12°C° 0 mm 4 m/S 732 mmHg 65%
    14:00 +12°C° 0 mm 4 m/S 731 mmHg 65%
    15:00 +10°C° 1.5 mm 4 m/S 730 mmHg 73%
    16:00 +8°C° 1.5 mm 5 m/S 729 mmHg 82%
    17:00 +7°C° 1.5 mm 5 m/S 729 mmHg 90%
    18:00 +7°C° 3.1 mm 5 m/S 727 mmHg 91%
    19:00 +7°C° 3.1 mm 6 m/S 726 mmHg 92%
    20:00 +7°C° 3.1 mm 6 m/S 725 mmHg 93%
    21:00 +6°C° 2.6 mm 7 m/S 723 mmHg 93%
    22:00 +8°C° 2.6 mm 7 m/S 722 mmHg 93%
    23:00 +8°C° 2.6 mm 7 m/S 720 mmHg 93%

    25 September, Dienstag

    Zeit Temperatur Niederschläge Wind Luftdruck Luftfeuchtigkeit
    00:00 +9°C° 1.2 mm 7 m/S 719 mmHg 93%
    01:00 +9°C° 1.2 mm 6 m/S 718 mmHg 93%
    02:00 +10°C° 1.2 mm 6 m/S 718 mmHg 93%
    03:00 +9°C° 0.2 mm 5 m/S 717 mmHg 92%
    04:00 +9°C° 0.2 mm 5 m/S 717 mmHg 92%
    05:00 +8°C° 0.2 mm 5 m/S 716 mmHg 91%
    06:00 +8°C° 0.3 mm 5 m/S 716 mmHg 92%
    07:00 +8°C° 0.3 mm 5 m/S 716 mmHg 92%
    08:00 +8°C° 0.3 mm 5 m/S 716 mmHg 93%
    09:00 +8°C° 0.4 mm 5 m/S 717 mmHg 92%
    10:00 +8°C° 0.4 mm 5 m/S 717 mmHg 92%
    11:00 +8°C° 0.4 mm 5 m/S 717 mmHg 92%
    12:00 +8°C° 0.2 mm 5 m/S 718 mmHg 91%
    13:00 +7°C° 0.2 mm 5 m/S 718 mmHg 91%
    14:00 +7°C° 0.2 mm 5 m/S 719 mmHg 90%
    15:00 +6°C° 0.2 mm 5 m/S 719 mmHg 90%
    16:00 +6°C° 0.2 mm 5 m/S 720 mmHg 90%
    17:00 +6°C° 0.2 mm 5 m/S 721 mmHg 90%
    18:00 +5°C° 0.4 mm 6 m/S 721 mmHg 90%
    19:00 +4°C° 0.4 mm 6 m/S 722 mmHg 90%
    20:00 +4°C° 0.4 mm 6 m/S 723 mmHg 90%
    21:00 +4°C° 0.7 mm 6 m/S 724 mmHg 90%
    22:00 +4°C° 0.7 mm 6 m/S 725 mmHg 90%
    23:00 +4°C° 0.7 mm 6 m/S 726 mmHg 90%
    Mehr zeigen